| time (UTC) | temp C | wind direction | speed KPH | gust KPH | rain 1hr cm | rain 24hr cm | rain mn cm | humidity % | barometer mb |
| 20260504215043 | 23 | 2 | 9.7 | 20.9 | 0.00 | 0.00 | 0.00 | 35 | 1007.9 |
| 20260504214023 | 23 | 13 | 4.8 | 11.3 | 0.00 | 0.00 | 0.00 | 32 | 1008.1 |
| 20260504213022 | 23 | 106 | 3.2 | 14.5 | 0.00 | 0.00 | 0.00 | 34 | 1008.1 |
| 20260504212023 | 23 | 350 | 8.0 | 16.1 | 0.00 | 0.00 | 0.00 | 32 | 1008.1 |
| 20260504211042 | 23 | 11 | 6.4 | 16.1 | 0.00 | 0.00 | 0.00 | 32 | 1008.1 |
| 20260504210024 | 23 | 29 | 8.0 | 20.9 | 0.00 | 0.00 | 0.00 | 32 | 1008.1 |
| 20260504205044 | 23 | 310 | 4.8 | 12.9 | 0.00 | 0.00 | 0.00 | 34 | 1008.2 |
| 20260504204043 | 23 | 10 | 4.8 | 8.0 | 0.00 | 0.00 | 0.00 | 31 | 1008.4 |
| 20260504203023 | 23 | 355 | 6.4 | 12.9 | 0.00 | 0.00 | 0.00 | 33 | 1008.4 |
| 20260504202030 | 23 | 334 | 6.4 | 16.1 | 0.00 | 0.00 | 0.00 | 33 | 1008.4 |
| 20260504201047 | 23 | 1 | 6.4 | 12.9 | 0.00 | 0.00 | 0.00 | 35 | 1008.4 |
| 20260504200027 | 23 | 44 | 3.2 | 9.7 | 0.00 | 0.00 | 0.00 | 33 | 1008.4 |
| 20260504195047 | 23 | 10 | 4.8 | 12.9 | 0.00 | 0.00 | 0.00 | 37 | 1008.4 |
| 20260504194045 | 23 | 266 | 4.8 | 11.3 | 0.00 | 0.00 | 0.00 | 35 | 1008.4 |
| 20260504193046 | 22 | 52 | 4.8 | 11.3 | 0.00 | 0.00 | 0.00 | 36 | 1008.4 |
| 20260504192027 | 22 | 209 | 1.6 | 4.8 | 0.00 | 0.00 | 0.00 | 37 | 1008.4 |
| 20260504191027 | 21 | 34 | 3.2 | 11.3 | 0.00 | 0.00 | 0.00 | 38 | 1008.4 |
| 20260504190025 | 21 | 5 | 6.4 | 12.9 | 0.00 | 0.00 | 0.00 | 35 | 1008.4 |
| 20260504185025 | 21 | 35 | 6.4 | 14.5 | 0.00 | 0.00 | 0.00 | 37 | 1008.6 |
| 20260504184145 | 21 | 20 | 4.8 | 11.3 | 0.00 | 0.00 | 0.00 | 37 | 1008.6 |
| 20260504183023 | 21 | 45 | 4.8 | 11.3 | 0.00 | 0.00 | 0.00 | 39 | 1008.5 |
| 20260504182023 | 21 | 36 | 6.4 | 11.3 | 0.00 | 0.00 | 0.00 | 40 | 1008.6 |
| 20260504181022 | 20 | 64 | 3.2 | 9.7 | 0.00 | 0.00 | 0.00 | 40 | 1008.7 |
| 20260504180017 | 20 | 39 | 4.8 | 14.5 | 0.00 | 0.00 | 0.00 | 40 | 1008.8 |
| 20260504175016 | 20 | 46 | 4.8 | 12.9 | 0.00 | 0.00 | 0.00 | 41 | 1008.8 |
| 20260504174016 | 19 | 51 | 6.4 | 12.9 | 0.00 | 0.00 | 0.00 | 41 | 1008.8 |
| 20260504173050 | 18 | 44 | 6.4 | 17.7 | 0.00 | 0.00 | 0.00 | 42 | 1008.5 |
| 20260504172049 | 18 | 61 | 6.4 | 16.1 | 0.00 | 0.00 | 0.00 | 42 | 1008.5 |
| 20260504171031 | 18 | 35 | 6.4 | 14.5 | 0.00 | 0.00 | 0.00 | 42 | 1008.6 |
| 20260504151027 | 14 | 90 | 1.6 | 8.0 | 0.00 | 0.00 | 0.00 | 56 | 1008.8 |
| 20260504141047 | 11 | 25 | 4.8 | 8.0 | 0.00 | 0.00 | 0.00 | 60 | 1008.4 |
| 20260504081027 | 13 | 31 | 6.4 | 8.0 | 0.00 | 0.00 | 0.00 | 44 | 1008.4 |
| 20260504060110 | 14 | 34 | 4.8 | 9.7 | 0.00 | 0.00 | 0.00 | 45 | 1009.2 |
| 20260504045018 | 16 | 30 | 3.2 | 3.2 | 0.00 | 0.00 | 0.00 | 44 | 1009.2 |
| 20260504044023 | 17 | 39 | 3.2 | 4.8 | 0.00 | 0.00 | 0.00 | 43 | 1009.4 |
| 20260504043022 | 17 | 110 | 1.6 | 4.8 | 0.00 | 0.00 | 0.00 | 42 | 1009.5 |
| 20260504042024 | 18 | 56 | 3.2 | 4.8 | 0.00 | 0.00 | 0.00 | 39 | 1009.2 |
| 20260504041045 | 19 | 197 | 3.2 | 3.2 | 0.00 | 0.00 | 0.00 | 38 | 1009.2 |
| 20260504040024 | 20 | 213 | 0.0 | 1.6 | 0.00 | 0.00 | 0.00 | 40 | 1009.2 |
| 20260504035025 | 20 | 256 | 0.0 | 1.6 | 0.00 | 0.00 | 0.00 | 30 | 1009.2 |
| 20260504034049 | 20 | 257 | 3.2 | 4.8 | 0.00 | 0.00 | 0.00 | 29 | 1009.2 |
| 20260504033017 | 20 | 241 | 3.2 | 3.2 | 0.00 | 0.00 | 0.00 | 29 | 1009.1 |
| 20260504032038 | 21 | 241 | 1.6 | 3.2 | 0.00 | 0.00 | 0.00 | 28 | 1009.1 |
| 20260504031044 | 21 | 242 | 3.2 | 3.2 | 0.00 | 0.00 | 0.00 | 28 | 1009.2 |
| 20260504030022 | 21 | 242 | 3.2 | 3.2 | 0.00 | 0.00 | 0.00 | 28 | 1008.9 |
| 20260504025022 | 21 | 244 | 1.6 | 3.2 | 0.00 | 0.00 | 0.00 | 28 | 1009.2 |
| 20260504024043 | 21 | 271 | 4.8 | 4.8 | 0.00 | 0.00 | 0.00 | 29 | 1009.2 |
| 20260504023023 | 22 | 262 | 4.8 | 4.8 | 0.00 | 0.00 | 0.00 | 30 | 1009.2 |
| 20260504022023 | 22 | 273 | 4.8 | 8.0 | 0.00 | 0.00 | 0.00 | 28 | 1009.2 |
| 20260504021043 | 22 | 272 | 4.8 | 8.0 | 0.00 | 0.00 | 0.00 | 31 | 1009.2 |
| 20260504020022 | 22 | 274 | 6.4 | 9.7 | 0.00 | 0.00 | 0.00 | 31 | 1009.2 |
| 20260504015021 | 22 | 281 | 8.0 | 9.7 | 0.00 | 0.00 | 0.00 | 30 | 1009.2 |
| 20260504014023 | 22 | 284 | 8.0 | 11.3 | 0.00 | 0.00 | 0.00 | 31 | 1009.5 |
| 20260504013024 | 22 | 276 | 8.0 | 14.5 | 0.00 | 0.00 | 0.00 | 31 | 1009.5 |
| 20260504012025 | 23 | 285 | 9.7 | 12.9 | 0.00 | 0.00 | 0.00 | 29 | 1009.5 |
| 20260504011046 | 23 | 278 | 6.4 | 11.3 | 0.00 | 0.00 | 0.00 | 29 | 1009.5 |
| 20260504010046 | 23 | 254 | 4.8 | 9.7 | 0.00 | 0.00 | 0.00 | 31 | 1009.8 |
| 20260504005047 | 23 | 281 | 8.0 | 12.9 | 0.00 | 0.00 | 0.00 | 27 | 1009.9 |
| 20260504004025 | 23 | 282 | 8.0 | 11.3 | 0.00 | 0.00 | 0.00 | 26 | 1009.8 |
| 20260504003027 | 24 | 279 | 8.0 | 12.9 | 0.00 | 0.00 | 0.00 | 25 | 1009.9 |
| 20260504002026 | 24 | 259 | 4.8 | 9.7 | 0.00 | 0.00 | 0.00 | 27 | 1009.9 |
| 20260504001105 | 24 | 268 | 8.0 | 14.5 | 0.00 | 0.00 | 0.00 | 25 | 1010.1 |
| 20260504000024 | 24 | 266 | 6.4 | 9.7 | 0.00 | 0.00 | 0.00 | 23 | 1010.3 |
| 20260503235024 | 25 | 282 | 9.7 | 16.1 | 0.00 | 0.00 | 0.00 | 22 | 1010.3 |
| 20260503234044 | 25 | 252 | 4.8 | 12.9 | 0.00 | 0.00 | 0.00 | 26 | 1010.3 |
| 20260503233024 | 24 | 250 | 6.4 | 9.7 | 0.00 | 0.00 | 0.00 | 26 | 1010.5 |
| 20260503232023 | 24 | 214 | 6.4 | 12.9 | 0.00 | 0.00 | 0.00 | 25 | 1010.5 |
| 20260503231044 | 24 | 228 | 6.4 | 12.9 | 0.00 | 0.00 | 0.00 | 25 | 1010.6 |
| 20260503230025 | 23 | 240 | 8.0 | 16.1 | 0.00 | 0.00 | 0.00 | 27 | 1010.9 |
| 20260503225046 | 23 | 248 | 6.4 | 12.9 | 0.00 | 0.00 | 0.00 | 29 | 1011.0 |
| 20260503224024 | 23 | 254 | 8.0 | 16.1 | 0.00 | 0.00 | 0.00 | 29 | 1011.1 |
| 20260503223024 | 23 | 264 | 9.7 | 16.1 | 0.00 | 0.00 | 0.00 | 29 | 1011.4 |
| 20260503222024 | 23 | 273 | 8.0 | 12.9 | 0.00 | 0.00 | 0.00 | 28 | 1011.5 |
| 20260503221043 | 23 | 267 | 8.0 | 12.9 | 0.00 | 0.00 | 0.00 | 31 | 1011.7 |
| 20260503220024 | 23 | 283 | 11.3 | 20.9 | 0.00 | 0.00 | 0.00 | 28 | 1011.9 |